This demonstration page uses our WeatherBlox Daily Observations layout. Learn more.

Left ArrowRight Arrow

Hourly Observations for September 2, 2020

Temp ( °F °C ) Dew Point ( °F °C ) Humidity (%) Winds ( mph kmh ) Pressure ( in mb ) Visibility ( mi km ) Precip ( " mm )
12:51 am 00:51 Clear 80 26.7 60 15.6 51 51 NW 13 20 29.81 1009 10 16.0934 0 0
1:51 am 01:51 Clear 80 26.7 63 17.2 56 56 NW 13 20 29.81 1010 10 16.0934 0 0
2:51 am 02:51 Clear 78 25.6 64 17.8 62 62 NW 10 17 29.82 1010 10 16.0934 0 0
3:51 am 03:51 Clear 77 25 63 17.2 62 62 WNW 15 24 29.81 1010 10 16.0934 0 0
4:51 am 04:51 Clear 76 24.4 64 17.8 67 67 NW 9 15 29.83 1010 10 16.0934 0 0
5:51 am 05:51 Clear 74 23.3 65 18.3 74 74 WNW 8 13 29.86 1011 10 16.0934 0 0
6:51 am 06:51 Sunny 77 25 65 18.3 66 66 NW 9 15 29.89 1012 10 16.0934 0 0
7:51 am 07:51 Sunny 81 27.2 65 18.3 58 58 NW 12 19 29.9 1013 10 16.0934 0 0
8:51 am 08:51 Sunny 83 28.3 65 18.3 55 55 WNW 15 24 29.91 1013 10 16.0934 0 0
9:51 am 09:51 Sunny 86 30 64 17.8 48 48 WNW 13 20 29.9 1012 10 16.0934 0 0
10:51 am 10:51 Sunny 89 31.7 63 17.2 42 42 WNW 15 24 29.88 1012 10 16.0934 0 0
11:51 am 11:51 Sunny 91 32.8 59 15 34 34 W 17 28 29.85 1011 10 16.0934 0 0
12:51 pm 12:51 Sunny 95 35 53 11.7 24 24 WNW 18 30 29.81 1010 10 16.0934 0 0
1:51 pm 13:51 Sunny 98 36.7 48 8.9 18 18 WNW 17 28 29.78 1009 10 16.0934 0 0
2:51 pm 14:51 Sunny 98 36.7 50 10 20 20 NW 18 30 29.75 1008 10 16.0934 0 0
3:51 pm 15:51 Sunny 98 36.7 50 10 20 20 W 16 26 29.73 1007 10 16.0934 0 0
4:51 pm 16:51 Sunny 97 36.1 52 11.1 22 22 WNW 20 31 29.72 1007 10 16.0934 0 0
5:51 pm 17:51 Sunny 94 34.4 49 9.4 21 21 W 17 28 29.74 1007 10 16.0934 0 0
6:51 pm 18:51 Clear 90 32.2 50 10 25 25 WNW 17 28 29.75 1007 10 16.0934 0 0
7:51 pm 19:51 Clear 88 31.1 50 10 27 27 NW 16 26 29.77 1008 10 16.0934 0 0
8:51 pm 20:51 Clear 86 30 52 11.1 31 31 NW 15 24 29.8 1009 10 16.0934 0 0
9:51 pm 21:51 Clear 85 29.4 52 11.1 32 32 WNW 14 22 29.8 1009 10 16.0934 0 0
10:51 pm 22:51 Clear 83 28.3 53 11.7 36 36 NW 12 19 29.82 1010 10 16.0934 0 0
11:51 pm 23:51 Clear 81 27.2 53 11.7 38 38 NW 9 15 29.82 1010 10 16.0934 0 0

Powered by AerisWeather